Probability
0 0 0 0 0 0 0 0 0 0 0 0 0 0 0 0 0 0 0 0 0 0 0 0 0 0 0 0 0 0 0 0 0 0 0 0 0 0
0 0 0 0 0 0 0 0 0 0 0 0 0 0 0 0 0 0 0 0 0 0 0 0 0 0 0 0 0 0 0 0 0 0 0 0 0 0
0 0 0 0 0 0 0 0 0 0 0 0 0 0 0 0 0 0 0 0 0 0 0 0 0 0 0 0 0 0 0 0 0 0 0 0 0 0
0 0 0 0 0 0 0 0 0 0 0 0 0 0 0 0 0 0 0 0 0 0 0 0 0 0 0 0 0 0 0 0 0 0 0 0 0 0
0 0 0 0 0 0 0 0 0 0 0 0 0 0 0 0 0 0 0 0 0 0 0 0 0 0 0 0 0 0 0 0 0 0 0 0 0 0
0 0 0 0 0 0 0 0 0 0 0 0 0 0 0 0 0 0 0 0 0 0 0 0 0 0 0 0 0 0 0 0 0 0 0 0 0 0
0 0 0 0 0 0 0 0 0 0 0 0 0 0 0 0 0 0 0 0 0 0 0 0 0 0 0 0 0 0 0 0 0 0 0 0 0 0
0 0 0 0 0 0 0 0 0 0 0 0 0 0 0 0 0 0 0 0 0 0 0 0 0 0 0 0 0 0 0 0 0 0 0 0 0 0
0 0 0 0 0 0 0 0 0 0 0 0 0 0 0 0 0 0 0 0 0 0 0 0 0 0 0 0 0 0 0 0 0 0 0 0 0 0
0 0 0 0 0 0 0 0 0 0 0 0 0 0 0 0 0 0 0 0 0 0 0 0 0 0 0 0 0 0 0 0 0 0 0 0 0 0
0 0 0 0 0 0 0 0 0 0 0 0 0 0 0 0 0 0 0 0 0 0 0 0 0 0 0 0 0 0 0 0 0 0 0 0 0 0
0 0 0 0 0 0 0 0 0 0 0 0 0 0 0 0 0 0 0 0 0 0 0 0 0 0 0 0 0 0 0 0 0 0 0 0 0 0
0 0 0 0 0 0 0 0 0 0 0 0 0 0 0 0 0 0 0 0 0 0 0 0 0 0 0 0 0 0 0 0 0 0 0 0 0 0
0 0 0 0 0 0 0 0 0 0 0 0 0 0 0 0 0 0 0 0 0 0 0 0 0 0 0 0 0 0 0 0 0 0 0 0 0 0
0 0 0 0 0 0 0 0 0 0 0 0 0 0 0 0 0 0 0 0 0 0 0 0 0 0 0 0 0 0 0 0 0 0 0 0 0 0
0 0 0 0 0 0 0 0 0 0 0 0 0 0 0 0 0 0 0 0 0 0 0 0 0 0 0 0 0 0 0 0 0 0 0 0 0 0
0 0 0 0 0 0 0 0 0 0 0 0 0 0 0 0 0 0 0 0 0 0 0 0 0 0 0 0 0 0 0 0 0 0 0 0 0 0
0 0 0 0 0 0 0 0 0 0 0 0 0 0 0 0 0 0 0 0 0 0 0 0 0 0 0 0 0 0 0 0 0 0 0 0 0 0
0 0 0 0 0 0 0 0 0 0 0 0 0 0 0 0 0 0 0 0 0 0 0 0 0 0 0 0 0 0 0 0 0 0 0 0 0 0
0 0 0 0 0 0 0 0 0 0 0 0 0 0 0 0 0 0 0 0 0 0 0 0 0 0 0 0 0 0 0 0 0 0 0 0 0 0
0 0 0 0 0 0 0 0 0 0 0 0 0 0 0 0 0 0 0 0 0 0 0 0 0 0 0 0 0 0 0 0 0 0 0 0 0 0
0 0 0 0 0 0 0 0 0 0 0 0 0 0 0 0 0 0 0 0 0 0 0 0 0 0 0 0 0 0 0 0 0 0 0 0 0 0
0 0 0 0 0 0 0 0 0 0 0 0 0 0 0 0 0 0 0 0 0 0 0 0 0 0 0 0 0 0 0 0 0 0 0 0 0 0
Wind_Speed
3 4 3 2 2 2 3 3 5 3 0 1 1 1 1 1 2 2 2 5 8 8 9 10 10 11 11 12 12 12 12 12 11 11 11 11 11 11
2 4 3 2 2 2 2 2 2 4 2 1 1 1 1 1 3 3 3 6 7 7 7 8 9 9 10 10 11 12 11 11 11 11 11 11 11 10
3 4 3 3 3 2 2 2 2 3 3 0 0 1 1 2 2 2 2 3 3 6 7 7 8 9 9 9 10 11 11 11 10 11 11 10 10 10
3 3 2 3 4 3 3 3 2 2 3 2 1 1 1 1 1 1 2 2 2 4 5 6 7 7 8 8 9 9 9 10 10 9 10 10 10 10
3 3 2 4 3 2 3 3 2 3 2 3 1 1 1 1 2 2 2 2 2 2 4 4 4 5 6 6 7 7 8 8 8 9 9 10 9 9
2 3 3 3 3 3 3 3 3 3 3 3 2 1 1 1 2 2 2 2 2 2 3 3 4 4 5 5 5 6 6 6 6 7 7 7 8 9
2 2 2 3 5 4 3 3 4 3 2 2 1 1 1 1 1 0 1 1 2 2 2 2 2 2 3 3 4 4 5 5 6 6 6 6 7 7
2 1 1 2 4 5 6 5 5 4 3 2 1 1 1 1 0 1 1 1 2 2 1 2 1 2 2 2 3 4 4 4 4 5 5 5 6 7
3 2 1 2 3 3 4 4 2 2 5 5 4 3 3 3 2 1 1 1 2 2 1 2 2 2 2 2 3 4 4 4 4 5 5 6 6 6
2 3 3 2 3 4 3 2 1 1 1 3 4 4 3 3 3 3 2 1 1 1 1 1 2 2 2 2 4 3 3 4 4 4 4 5 5 6
1 2 3 3 4 5 4 2 0 1 1 2 3 3 3 4 3 2 1 1 1 2 0 1 1 2 2 2 3 4 4 4 4 5 5 5 5 5
0 0 2 3 4 5 4 4 2 2 0 1 1 2 1 1 2 3 3 2 1 2 2 1 1 1 2 3 2 2 3 4 5 5 6 6 5 3
1 1 1 2 4 5 5 4 4 2 1 0 1 1 2 1 1 1 2 3 3 3 3 2 1 1 1 3 3 2 2 2 2 3 5 7 6 3
2 2 2 2 2 3 3 3 3 2 1 0 0 1 1 2 2 2 2 3 3 4 3 3 2 3 2 2 4 3 2 2 2 3 3 5 5 6
2 3 3 2 1 1 2 2 2 1 1 1 2 2 2 2 2 1 1 1 2 2 2 3 3 2 3 3 3 3 3 3 2 2 3 3 3 3
1 1 1 1 0 0 1 0 1 2 2 2 3 2 1 1 1 1 1 1 1 3 3 2 3 3 2 3 3 4 3 3 3 3 3 4 4 3
2 2 1 1 1 1 1 1 1 0 1 1 1 2 2 1 2 1 1 1 1 2 3 3 2 2 4 3 3 4 4 3 4 3 3 4 5 5
4 1 1 1 1 1 1 1 1 1 2 1 1 2 2 2 2 1 1 1 2 2 3 2 2 2 3 3 5 4 3 4 4 3 3 4 6 5
3 1 1 1 1 1 1 1 2 2 1 1 1 2 2 2 1 1 1 1 2 2 2 2 1 1 3 5 5 5 4 4 3 3 4 4 6 6
1 1 1 1 1 1 1 1 1 1 1 1 1 1 1 1 1 2 2 2 2 2 2 2 2 2 4 5 5 4 6 5 3 4 4 4 5 7
1 1 1 1 1 1 1 1 1 1 1 1 1 2 1 1 2 2 2 3 3 2 3 4 5 6 4 2 3 5 4 6 6 5 4 4 5 4
1 1 1 1 1 1 1 1 1 1 1 1 2 2 2 2 2 3 2 2 3 3 4 4 3 2 1 3 6 6 6 5 6 9 8 7 4 4
1 1 1 1 1 1 1 1 1 1 1 2 2 2 2 2 2 2 2 2 3 3 3 3 3 2 3 4 5 5 7 6 4 4 5 7 10 12
Wind_Direction
87 86 84 74 82 100 121 135 136 127 338 295 313 327 347 30 39 47 43 61 61 58 54 52 49 47 46 44 43 43 47 48 48 50 52 53 54 55
86 86 78 71 69 76 100 105 120 134 150 245 248 267 334 54 59 47 44 57 54 57 58 55 51 49 47 46 45 45 47 48 49 49 48 47 48 48
73 84 78 79 77 68 79 88 92 113 126 252 310 350 37 49 39 36 41 37 32 50 59 57 52 49 47 47 47 48 48 47 48 47 46 45 44 43
96 93 84 87 77 69 79 82 87 101 126 128 1 9 30 45 58 56 43 50 34 41 52 51 50 49 47 44 45 47 47 46 44 42 41 40 38 35
125 119 113 103 90 82 84 87 83 80 91 115 85 12 16 33 51 37 33 24 16 41 41 38 39 42 42 40 39 41 42 42 40 39 36 33 32 30
118 126 132 134 135 126 107 106 104 87 83 93 78 32 19 11 60 50 19 7 357 12 16 25 27 33 34 36 33 35 34 33 33 31 29 28 27 27
91 105 131 144 153 149 136 134 122 108 99 95 84 45 15 24 17 360 65 351 347 358 357 358 6 5 359 2 13 22 27 28 26 23 20 20 21 21
132 112 108 116 123 121 128 137 144 142 145 139 142 159 236 231 202 123 115 50 325 319 15 328 5 329 317 323 330 354 11 16 13 13 16 21 18 11
155 153 142 132 125 114 100 95 95 146 167 162 167 201 208 210 175 159 179 182 225 263 62 311 330 312 301 321 329 339 354 1 359 2 6 5 1 360
175 176 163 162 165 152 129 98 56 358 205 173 184 209 212 202 184 183 185 176 294 299 124 261 307 297 309 314 319 322 336 343 345 347 348 349 347 346
204 178 166 173 187 163 140 140 112 318 350 164 190 215 222 210 175 124 106 94 311 293 242 179 274 297 301 297 305 313 315 321 325 332 334 332 332 335
221 243 184 181 183 167 158 162 190 245 255 15 3 343 324 290 215 178 170 164 197 273 252 174 245 334 316 294 290 302 307 307 307 310 317 316 316 321
185 228 241 197 191 184 172 178 200 192 162 178 309 321 327 316 295 225 190 174 183 233 233 170 198 201 226 287 302 289 280 289 301 300 305 307 308 301
197 215 224 211 199 193 190 201 200 156 121 97 325 299 292 284 275 259 230 216 214 225 230 177 190 198 209 262 282 297 298 282 277 284 291 306 304 300
200 200 204 207 202 213 224 218 192 161 163 200 244 255 250 256 275 297 300 274 276 265 246 205 199 209 200 225 253 266 288 288 269 272 286 284 282 287
198 187 128 118 135 294 320 294 202 194 197 222 242 254 272 283 274 252 262 299 317 305 292 244 215 200 222 237 237 260 258 272 286 278 277 278 276 265
133 80 53 38 3 332 324 308 295 274 241 246 247 269 280 278 275 265 229 205 229 275 299 307 287 241 229 225 248 258 263 267 266 271 277 283 275 267
123 124 170 202 230 245 261 291 293 267 255 248 249 250 259 264 276 289 272 237 257 268 275 287 317 337 332 287 228 242 257 261 267 265 252 269 282 278
123 167 198 216 236 246 246 245 263 266 257 245 250 259 262 266 271 280 282 279 275 275 277 280 278 251 289 289 280 231 237 263 270 270 256 250 266 277
168 200 221 233 239 244 248 252 270 293 287 268 264 268 263 259 269 275 268 265 269 274 281 280 257 243 245 262 271 272 246 243 252 266 271 270 267 275
213 230 235 230 236 240 246 250 252 264 279 277 276 272 268 259 268 273 272 277 270 269 273 270 264 268 267 286 291 285 276 257 252 259 269 279 288 291
210 228 246 244 246 250 254 256 271 281 290 279 280 282 277 265 266 270 272 276 272 269 271 277 289 297 270 265 277 283 288 293 284 276 265 251 257 266
231 236 259 279 275 271 255 251 251 265 266 265 271 276 278 277 275 268 267 268 275 282 290 295 302 295 278 272 280 287 292 295 297 300 287 280 276 276